Location: ????????
(60.4333°N, 46.4710°E)
Time: 19:14:15
(UTC+00:00)

Cosmos 2285 Rocket - Pass Details

Date: 25 November 2020
Orbit: 971 x 998 km, 74.0° (Epoch: 17 January)

Event Time Altitude Azimuth Distance (km) Brightness Sun altitude
Rises 14:34:20 0° 326° (NNW) 3,730 7.3 -17.2°
Reaches altitude 10° 14:36:54 10° 326° (NW) 2,775 6.7 -17.6°
Maximum altitude 14:43:21 79° 241° (WSW) 1,017 4.1 -18.3°
Drops below altitude 10° 14:49:43 10° 156° (SSE) 2,742 6.2 -19.1°
Sets 14:52:14 0° 156° (SSE) 3,683 6.9 -19.4°
